Russellville, AR

7:40 AM CDT on August 17, 2017 (GMT -0500)
Russellville Regional

Weather History for KRUE - December, 2012

Change the Weather History Date:

Wednesday, December 19, 2012

  Actual Average (KHOT) Record (KHOT)
Temperature  
Mean Temperature 52 °F -  
Max Temperature 66 °F 53 °F 71 °F (1980)
Min Temperature 37 °F 31 °F 10 °F (1989)
Degree Days  
Heating Degree Days 14    
Growing Degree Days 2 (Base 50)    
Moisture  
Dew Point 50 °F    
Average Humidity 84    
Maximum Humidity 97    
Minimum Humidity 76    
Precipitation  
Precipitation 0.00 in - - ()
Sea Level Pressure  
Sea Level Pressure 29.69 in    
Wind  
Wind Speed 3 mph (ESE)    
Max Wind Speed 28 mph    
Max Gust Speed 40 mph    
Visibility 9 miles    
Events Rain , Thunderstorm    
Averages and records for this station are not official NWS values.
T = Trace of Precipitation, MM = Missing Value Source: NWS Daily Summary

Daily Weather History Graph

Daily Weather History Graph

Search for Another Location

Airport or City:

Trip Planner

Search our weather history database for the weather conditions in past years. The results will help you decide how hot, cold, wet, or windy it might be!

Date:

Astronomy

Dec. 19, 2012 Rise Set
Actual Time 7:16 AM CST 5:03 PM CST
Civil Twilight 6:48 AM CST 5:31 PM CST
Nautical Twilight 6:16 AM CST 6:03 PM CST
Astronomical Twilight 5:45 AM CST 6:34 PM CST
Moon 11:40 AM CST (12/19) No Moon Set
Length of Visible Light 10h 43m
Length of Day
9h 46m
Waxing Crescent, 45% of the Moon is Illuminated
Dec 19
Waxing Crescent
Dec 19
First Quarter
Dec 28
Full
Jan 4
Last Quarter
Jan 11
New

Hourly Weather History & Observations

Time (CST) Temp. Dew Point Humidity Pressure Visibility Wind Dir Wind Speed Gust Speed Precip Events Conditions
12:53 AM 37.0 °F 35.1 °F 93% 29.83 in 8.0 mi Calm Calm - N/A   Clear
1:53 AM 37.0 °F 34.0 °F 89% 29.84 in 7.0 mi Calm Calm - N/A   Clear
2:53 AM 37.9 °F 35.1 °F 89% 29.83 in 10.0 mi Calm Calm - N/A   Clear
3:53 AM 37.0 °F 35.1 °F 93% 29.81 in 8.0 mi Calm Calm - N/A   Clear
4:53 AM 37.0 °F 35.1 °F 93% 29.82 in 10.0 mi Calm Calm - N/A   Clear
5:53 AM 37.9 °F 36.0 °F 93% 29.83 in 10.0 mi Calm Calm - N/A   Clear
6:53 AM 37.9 °F 37.0 °F 97% 29.83 in 7.0 mi Calm Calm - N/A   Clear
7:53 AM 39.0 °F 37.0 °F 93% 29.83 in 9.0 mi Calm Calm - N/A   Clear
8:15 AM 42.8 °F 39.2 °F 87% 29.84 in 9.0 mi Calm Calm - N/A   Mostly Cloudy
8:48 AM 46.4 °F 42.8 °F 87% 29.84 in 9.0 mi Calm Calm - N/A   Overcast
8:53 AM 46.0 °F 42.1 °F 86% 29.84 in 9.0 mi Calm Calm - N/A   Overcast
9:53 AM 53.1 °F 46.9 °F 80% 29.84 in 10.0 mi Calm Calm - N/A   Overcast
10:53 AM 55.9 °F 48.9 °F 77% 29.81 in 10.0 mi Calm Calm - N/A   Mostly Cloudy
11:53 AM 57.0 °F 51.1 °F 81% 29.79 in 10.0 mi Variable 5.8 mph - N/A   Overcast
12:53 PM 57.9 °F 53.1 °F 84% 29.75 in 10.0 mi ESE 5.8 mph - N/A   Overcast
1:53 PM 60.1 °F 55.0 °F 83% 29.73 in 10.0 mi ESE 4.6 mph - N/A   Overcast
2:49 PM 60.8 °F 55.4 °F 82% 29.70 in 10.0 mi Variable 6.9 mph - N/A   Overcast
2:53 PM 61.0 °F 55.9 °F 83% 29.68 in 10.0 mi Variable 5.8 mph - N/A   Overcast
3:53 PM 61.0 °F 55.9 °F 83% 29.67 in 10.0 mi ESE 8.1 mph - N/A   Overcast
4:05 PM 60.8 °F 55.4 °F 82% 29.68 in 10.0 mi Variable 5.8 mph - N/A   Mostly Cloudy
4:53 PM 62.1 °F 57.0 °F 84% 29.65 in 10.0 mi Variable 5.8 mph - N/A   Overcast
5:33 PM 62.6 °F 57.2 °F 82% 29.67 in 10.0 mi Calm Calm - N/A   Overcast
5:53 PM 63.0 °F 57.0 °F 81% 29.65 in 10.0 mi East 5.8 mph - N/A   Overcast
6:06 PM 62.6 °F 57.2 °F 82% 29.64 in 10.0 mi ESE 8.1 mph - N/A   Overcast
6:53 PM 63.0 °F 57.0 °F 81% 29.63 in 10.0 mi Variable 3.5 mph - N/A   Overcast
7:19 PM 64.4 °F 57.2 °F 77% 29.64 in 10.0 mi East 4.6 mph - N/A   Overcast
7:53 PM 64.9 °F 57.9 °F 78% 29.62 in 10.0 mi Calm Calm - N/A   Overcast
8:12 PM 64.4 °F 57.2 °F 77% 29.61 in 10.0 mi East 5.8 mph - N/A   Overcast
8:53 PM 64.9 °F 57.9 °F 78% 29.57 in 10.0 mi Variable 4.6 mph - N/A   Overcast
9:53 PM 66.9 °F 59.0 °F 76% 29.52 in 10.0 mi Variable 6.9 mph - N/A   Overcast
10:09 PM 66.2 °F 59.0 °F 78% 29.53 in 10.0 mi SE 5.8 mph - N/A   Overcast
10:17 PM 66.2 °F 60.8 °F 83% 29.52 in 10.0 mi SE 5.8 mph - N/A   Mostly Cloudy
10:53 PM 66.9 °F 61.0 °F 81% 29.48 in 10.0 mi SSE 4.6 mph - N/A   Overcast
11:05 PM 66.2 °F 60.8 °F 83% 29.49 in 10.0 mi SSE 4.6 mph - N/A   Overcast
11:24 PM 66.2 °F 59.0 °F 78% 29.54 in 10.0 mi WNW 27.6 mph 40.3 mph N/A Thunderstorm Overcast
11:37 PM 57.2 °F 53.6 °F 88% 29.54 in 2.5 mi WNW 15.0 mph 33.4 mph 0.09 in Rain , Thunderstorm Heavy Rain
11:48 PM 57.2 °F 53.6 °F 88% 29.56 in 1.5 mi Variable 4.6 mph 20.7 mph 0.27 in Rain , Thunderstorm Heavy Thunderstorms and Rain